Location: Praha
(50.0830°N, 14.4670°E)
Time: 07:22:54
(UTC+02:00)

ISS - Visible Passes

Search period start: 18 May 2021 00:00
Search period end: 28 May 2021 00:00
Orbit: 417 x 422 km, 51.6° (Epoch: 18 May)

Date Brightness Start Highest point End Pass type
(mag) Time Alt. Az. Time Alt. Az. Time Alt. Az.
18 May -3.8 01:19:40 10° WNW 01:22:53 79° WNW 01:22:53 79° WNW visible
18 May -3.6 22:55:15 10° W 22:58:37 73° N 23:01:59 10° ENE visible
19 May -3.6 00:32:12 10° WNW 00:35:36 74° NNE 00:36:27 46° E visible
19 May -1.2 02:09:07 10° W 02:09:23 12° W 02:09:23 12° W visible
19 May -3.7 22:07:45 10° WSW 22:11:07 85° NNW 22:14:31 10° ENE visible
19 May -3.5 23:44:43 10° WNW 23:48:05 67° N 23:50:16 20° E visible
20 May -2.2 01:21:35 10° WNW 01:23:12 25° W 01:23:12 25° W visible
20 May -3.4 22:57:13 10° W 23:00:34 64° N 23:03:56 10° E visible
21 May -3.7 00:34:06 10° WNW 00:37:06 64° WSW 00:37:06 64° WSW visible
21 May -3.4 22:09:41 10° W 22:13:03 66° N 22:16:25 10° E visible
21 May -3.8 23:46:37 10° WNW 23:50:00 88° NNE 23:51:03 41° ESE visible
22 May -1.2 01:23:39 10° W 01:23:59 12° W 01:23:59 12° W visible
22 May -3.6 22:59:08 10° WNW 23:02:31 75° N 23:05:02 17° E visible
23 May -2.3 00:36:02 10° W 00:37:58 27° WSW 00:37:58 27° WSW visible
23 May -3.4 22:11:38 10° WNW 22:15:00 67° N 22:18:22 10° E visible
23 May -3.7 23:48:30 10° WNW 23:51:49 55° SSW 23:51:59 54° SSW visible
24 May -3.8 23:01:00 10° WNW 23:04:22 74° SSW 23:06:01 28° ESE visible
25 May -1.3 00:38:19 10° W 00:38:57 13° WSW 00:38:57 13° WSW visible
25 May -3.8 22:13:30 10° WNW 22:16:54 88° NNE 22:20:04 11° ESE visible
25 May -2.4 23:50:33 10° W 23:53:00 26° SW 23:53:00 26° SW visible
26 May -3.1 23:02:55 10° W 23:06:06 39° SSW 23:07:05 30° SSE visible
27 May -3.5 22:15:22 10° WNW 22:18:40 54° SSW 22:21:13 16° SE visible
27 May -1.3 23:53:19 10° WSW 23:54:09 12° WSW 23:54:09 12° WSW visible
